Tracking 19562 objects as of 25-Mar-2019
HD Live streaming from Space Station
objects crossing your sky now

STTW-T1

Track STTW-T1 now!
10-day predictions
STTW-T1 is classified as:


NORAD ID: 14670
Int'l Code: 1984-008A
Perigee: 485.0 km
Apogee: 6,318.9 km
Inclination: 36.1 °
Period: 160.3 minutes
Semi major axis: 9772 km
RCS: 3.9341 m2 (large)
Launch date: January 29, 1984
Source: People's Republic of China (PRC)
Launch site: Xichang Space Center, China (XSC)
aabbcc
Your satellite tracking list
Your tracking list is empty




NASA's NSSDC Master Catalog

Two Line Element Set (TLE):
1 14670U 84008A   19083.97758761  .00000039  00000-0  13657-4 0  9997
2 14670  36.1293  25.1540 2984698 218.7675 115.6027  8.98593596145872
Source of the keplerian elements: AFSPC